| time (UTC) | temp C | wind direction | speed KPH | gust KPH | rain 1hr cm | rain 24hr cm | rain mn cm | humidity % | barometer mb |
| 20260505140315 | 8 | 323 | 0.0 | 0.0 | 0.00 | 0.05 | 0.05 | 87 | 815.8 |
| 20260505130311 | 7 | 317 | 0.0 | 0.0 | 0.05 | 0.05 | 0.05 | 86 | 815.9 |
| 20260505124812 | 7 | 317 | 0.0 | 0.0 | 0.05 | 0.05 | 0.05 | 84 | 816.2 |
| 20260505124312 | 7 | 317 | 0.0 | 0.0 | 0.05 | 0.05 | 0.05 | 83 | 815.9 |
| 20260505123810 | 7 | 296 | 0.0 | 0.0 | 0.05 | 0.05 | 0.05 | 82 | 816.0 |
| 20260505123309 | 7 | 270 | 0.0 | 6.4 | 0.05 | 0.05 | 0.05 | 82 | 816.4 |
| 20260505122813 | 8 | 267 | 0.0 | 11.3 | 0.05 | 0.05 | 0.05 | 81 | 816.8 |
| 20260505122809 | 8 | 219 | 0.0 | 11.3 | 0.05 | 0.05 | 0.05 | 81 | 816.7 |
| 20260505121809 | 8 | 260 | 0.0 | 0.0 | 0.03 | 0.03 | 0.03 | 81 | 817.0 |
| 20260505121309 | 8 | 244 | 0.0 | 3.2 | 0.03 | 0.03 | 0.03 | 79 | 816.8 |
| 20260505120811 | 8 | 266 | 1.6 | 24.1 | 0.03 | 0.03 | 0.03 | 77 | 816.9 |
| 20260505120310 | 8 | 265 | 1.6 | 24.1 | 0.00 | 0.00 | 0.00 | 75 | 816.8 |
| 20260505115809 | 9 | 253 | 1.6 | 14.5 | 0.00 | 0.00 | 0.00 | 72 | 816.7 |
| 20260505115309 | 10 | 271 | 1.6 | 16.1 | 0.00 | 0.00 | 0.00 | 69 | 816.6 |
| 20260505114809 | 10 | 307 | 1.6 | 16.1 | 0.00 | 0.00 | 0.00 | 68 | 816.6 |
| 20260505114309 | 10 | 303 | 3.2 | 30.6 | 0.00 | 0.00 | 0.00 | 68 | 816.5 |
| 20260505113807 | 10 | 236 | 3.2 | 30.6 | 0.00 | 0.00 | 0.00 | 67 | 816.5 |
| 20260505113307 | 11 | 257 | 1.6 | 22.5 | 0.00 | 0.00 | 0.00 | 66 | 816.4 |
| 20260505112914 | 11 | 244 | 0.0 | 9.7 | 0.00 | 0.00 | 0.00 | 68 | 816.4 |
| 20260505112813 | 11 | 275 | 1.6 | 19.3 | 0.00 | 0.00 | 0.00 | 66 | 816.6 |
| 20260505112808 | 11 | 179 | 1.6 | 19.3 | 0.00 | 0.00 | 0.00 | 66 | 816.4 |
| 20260505111913 | 11 | 271 | 0.0 | 1.6 | 0.00 | 0.00 | 0.00 | 73 | 816.4 |
| 20260505110807 | 11 | 281 | 0.0 | 11.3 | 0.00 | 0.00 | 0.00 | 73 | 816.3 |
| 20260505110307 | 11 | 250 | 0.0 | 11.3 | 0.00 | 0.00 | 0.00 | 73 | 816.2 |
| 20260505101303 | 11 | 284 | 0.0 | 6.4 | 0.00 | 0.00 | 0.00 | 73 | 816.3 |
| 20260505100800 | 11 | 273 | 0.0 | 6.4 | 0.00 | 0.00 | 0.00 | 73 | 816.2 |
| 20260505100301 | 11 | 269 | 0.0 | 9.7 | 0.00 | 0.00 | 0.00 | 73 | 816.2 |
| 20260505095804 | 11 | 280 | 0.0 | 9.7 | 0.00 | 0.00 | 0.00 | 73 | 816.3 |
| 20260505095300 | 11 | 207 | 0.0 | 0.0 | 0.00 | 0.00 | 0.00 | 72 | 816.5 |
| 20260505094805 | 11 | 288 | 0.0 | 9.7 | 0.00 | 0.00 | 0.00 | 72 | 816.5 |
| 20260505094800 | 11 | 205 | 0.0 | 14.5 | 0.00 | 0.00 | 0.00 | 72 | 816.7 |
| 20260505094259 | 11 | 242 | 0.0 | 14.5 | 0.00 | 0.00 | 0.00 | 72 | 816.6 |
| 20260505093258 | 11 | 233 | 0.0 | 11.3 | 0.00 | 0.00 | 0.00 | 72 | 816.2 |
| 20260505092803 | 10 | 262 | 0.0 | 4.8 | 0.00 | 0.00 | 0.00 | 72 | 816.3 |
| 20260505092759 | 10 | 252 | 0.0 | 11.3 | 0.00 | 0.00 | 0.00 | 72 | 816.3 |
| 20260505091758 | 10 | 261 | 0.0 | 6.4 | 0.00 | 0.00 | 0.00 | 74 | 816.4 |
| 20260505091257 | 10 | 261 | 0.0 | 6.4 | 0.00 | 0.00 | 0.00 | 75 | 816.5 |
| 20260505090759 | 9 | 277 | 0.0 | 8.0 | 0.00 | 0.00 | 0.00 | 77 | 816.3 |
| 20260505090755 | 10 | 265 | 0.0 | 8.0 | 0.00 | 0.00 | 0.00 | 76 | 816.4 |
| 20260505085759 | 9 | 263 | 0.0 | 1.6 | 0.00 | 0.00 | 0.00 | 77 | 816.5 |
| 20260505085755 | 9 | 270 | 0.0 | 1.6 | 0.00 | 0.00 | 0.00 | 77 | 816.4 |
| 20260505085401 | 9 | 313 | 0.0 | 0.0 | 0.00 | 0.00 | 0.00 | 77 | 816.4 |
| 20260505084754 | 9 | 313 | 0.0 | 0.0 | 0.00 | 0.00 | 0.00 | 77 | 816.5 |
| 20260505083756 | 9 | 317 | 0.0 | 0.0 | 0.00 | 0.00 | 0.00 | 77 | 816.5 |
| 20260505083255 | 9 | 317 | 0.0 | 0.0 | 0.00 | 0.00 | 0.00 | 77 | 816.6 |
| 20260505082754 | 9 | 317 | 0.0 | 0.0 | 0.00 | 0.00 | 0.00 | 76 | 816.6 |
| 20260505082254 | 9 | 317 | 0.0 | 0.0 | 0.00 | 0.00 | 0.00 | 76 | 816.9 |
| 20260505081753 | 9 | 317 | 0.0 | 0.0 | 0.00 | 0.00 | 0.00 | 75 | 816.9 |
| 20260505081257 | 9 | 317 | 0.0 | 0.0 | 0.00 | 0.00 | 0.00 | 75 | 816.7 |
| 20260505081253 | 9 | 317 | 0.0 | 0.0 | 0.00 | 0.00 | 0.00 | 75 | 817.0 |
| 20260505080253 | 10 | 317 | 0.0 | 0.0 | 0.00 | 0.00 | 0.00 | 74 | 816.9 |
| 20260505075759 | 10 | 317 | 0.0 | 0.0 | 0.00 | 0.00 | 0.00 | 72 | 817.3 |
| 20260505075753 | 10 | 317 | 0.0 | 0.0 | 0.00 | 0.00 | 0.00 | 74 | 816.9 |
| 20260505075253 | 10 | 317 | 0.0 | 0.0 | 0.00 | 0.00 | 0.00 | 73 | 816.9 |
| 20260505074753 | 10 | 317 | 0.0 | 0.0 | 0.00 | 0.00 | 0.00 | 72 | 817.1 |
| 20260505074359 | 10 | 317 | 0.0 | 0.0 | 0.00 | 0.00 | 0.00 | 71 | 817.3 |
| 20260505073253 | 10 | 317 | 0.0 | 0.0 | 0.00 | 0.00 | 0.00 | 71 | 817.2 |
| 20260505072751 | 10 | 317 | 0.0 | 0.0 | 0.00 | 0.00 | 0.00 | 71 | 817.2 |
| 20260505072251 | 10 | 317 | 0.0 | 0.0 | 0.00 | 0.00 | 0.00 | 71 | 816.9 |
| 20260505071751 | 10 | 317 | 0.0 | 0.0 | 0.00 | 0.00 | 0.00 | 70 | 817.1 |
| 20260505071250 | 10 | 317 | 0.0 | 0.0 | 0.00 | 0.00 | 0.00 | 70 | 817.2 |
| 20260505070750 | 10 | 317 | 0.0 | 0.0 | 0.00 | 0.00 | 0.00 | 70 | 817.1 |
| 20260505070250 | 10 | 318 | 0.0 | 0.0 | 0.00 | 0.00 | 0.00 | 70 | 816.9 |
| 20260505065750 | 10 | 318 | 0.0 | 0.0 | 0.00 | 0.00 | 0.00 | 70 | 817.0 |
| 20260505065251 | 10 | 318 | 0.0 | 0.0 | 0.00 | 0.00 | 0.00 | 69 | 817.2 |
| 20260505064754 | 11 | 318 | 0.0 | 0.0 | 0.00 | 0.00 | 0.00 | 68 | 817.2 |
| 20260505064750 | 10 | 318 | 0.0 | 0.0 | 0.00 | 0.00 | 0.00 | 69 | 817.2 |
| 20260505063750 | 11 | 318 | 0.0 | 0.0 | 0.00 | 0.00 | 0.00 | 67 | 817.3 |
| 20260505063251 | 11 | 318 | 0.0 | 0.0 | 0.00 | 0.00 | 0.00 | 67 | 817.3 |
| 20260505062750 | 11 | 318 | 0.0 | 0.0 | 0.00 | 0.00 | 0.00 | 66 | 817.2 |
| 20260505062251 | 11 | 317 | 0.0 | 0.0 | 0.00 | 0.00 | 0.00 | 66 | 817.1 |
| 20260505061748 | 11 | 311 | 0.0 | 0.0 | 0.00 | 0.00 | 0.00 | 66 | 816.9 |
| 20260505061254 | 11 | 325 | 0.0 | 0.0 | 0.00 | 0.00 | 0.00 | 65 | 816.7 |
| 20260505061248 | 11 | 330 | 0.0 | 0.0 | 0.00 | 0.00 | 0.00 | 65 | 816.8 |
| 20260505060247 | 11 | 327 | 0.0 | 0.0 | 0.00 | 0.00 | 0.00 | 64 | 816.6 |
| 20260505055747 | 11 | 319 | 0.0 | 0.0 | 0.00 | 0.00 | 0.00 | 64 | 816.6 |
| 20260505055247 | 11 | 5 | 0.0 | 0.0 | 0.00 | 0.00 | 0.00 | 63 | 816.7 |
| 20260505054746 | 11 | 348 | 0.0 | 0.0 | 0.00 | 0.00 | 0.00 | 63 | 817.0 |
| 20260505054246 | 11 | 334 | 0.0 | 1.6 | 0.00 | 0.00 | 0.00 | 63 | 816.8 |
| 20260505053745 | 11 | 319 | 0.0 | 1.6 | 0.00 | 0.00 | 0.00 | 63 | 817.1 |
| 20260505053243 | 11 | 330 | 0.0 | 0.0 | 0.00 | 0.00 | 0.00 | 63 | 817.3 |
| 20260505052743 | 11 | 318 | 0.0 | 0.0 | 0.00 | 0.00 | 0.00 | 63 | 817.6 |
| 20260505052243 | 12 | 315 | 0.0 | 1.6 | 0.00 | 0.00 | 0.00 | 63 | 817.6 |
| 20260505051744 | 12 | 341 | 0.0 | 1.6 | 0.00 | 0.00 | 0.00 | 63 | 817.6 |
| 20260505051245 | 12 | 323 | 0.0 | 1.6 | 0.00 | 0.00 | 0.00 | 62 | 817.5 |
| 20260505050744 | 12 | 323 | 0.0 | 1.6 | 0.00 | 0.00 | 0.00 | 62 | 817.5 |
| 20260505050243 | 12 | 333 | 0.0 | 0.0 | 0.00 | 0.00 | 0.00 | 62 | 817.5 |
| 20260505041743 | 12 | 310 | 0.0 | 8.0 | 0.00 | 0.00 | 0.00 | 60 | 817.4 |
| 20260505041242 | 12 | 310 | 0.0 | 8.0 | 0.00 | 0.00 | 0.00 | 59 | 817.4 |
| 20260505040741 | 12 | 344 | 0.0 | 8.0 | 0.00 | 0.00 | 0.00 | 58 | 817.5 |
| 20260505040242 | 12 | 270 | 0.0 | 16.1 | 0.00 | 0.00 | 0.00 | 57 | 817.6 |
| 20260505035742 | 13 | 306 | 0.0 | 19.3 | 0.00 | 0.00 | 0.00 | 56 | 817.6 |
| 20260505035238 | 13 | 346 | 0.0 | 19.3 | 0.00 | 0.00 | 0.00 | 55 | 817.6 |
| 20260505034742 | 13 | 292 | 0.0 | 12.9 | 0.00 | 0.00 | 0.00 | 52 | 817.4 |
| 20260505034737 | 13 | 311 | 0.0 | 8.0 | 0.00 | 0.00 | 0.00 | 54 | 817.6 |
| 20260505034236 | 13 | 282 | 0.0 | 12.9 | 0.00 | 0.00 | 0.00 | 53 | 817.5 |
| 20260505033841 | 13 | 304 | 0.0 | 12.9 | 0.00 | 0.00 | 0.00 | 51 | 817.5 |
| 20260505032735 | 13 | 276 | 0.0 | 4.8 | 0.00 | 0.00 | 0.00 | 50 | 817.7 |
| 20260505032236 | 14 | 259 | 0.0 | 8.0 | 0.00 | 0.00 | 0.00 | 49 | 817.6 |
| 20260505031735 | 14 | 315 | 1.6 | 16.1 | 0.00 | 0.00 | 0.00 | 49 | 817.6 |
| 20260505031236 | 14 | 317 | 1.6 | 16.1 | 0.00 | 0.00 | 0.00 | 48 | 817.6 |
| 20260505030741 | 14 | 291 | 0.0 | 19.3 | 0.00 | 0.00 | 0.00 | 46 | 817.7 |
| 20260505030736 | 14 | 278 | 1.6 | 19.3 | 0.00 | 0.00 | 0.00 | 46 | 817.4 |
| 20260505030341 | 14 | 319 | 1.6 | 24.1 | 0.00 | 0.00 | 0.00 | 45 | 817.1 |
| 20260505025234 | 14 | 328 | 1.6 | 24.1 | 0.00 | 0.00 | 0.00 | 44 | 816.9 |
| 20260505024734 | 15 | 345 | 1.6 | 22.5 | 0.00 | 0.00 | 0.00 | 44 | 816.9 |
| 20260505024233 | 15 | 341 | 3.2 | 20.9 | 0.00 | 0.00 | 0.00 | 42 | 816.9 |
| 20260505023731 | 15 | 333 | 3.2 | 20.9 | 0.00 | 0.00 | 0.00 | 41 | 816.7 |
| 20260505023231 | 16 | 328 | 1.6 | 11.3 | 0.00 | 0.00 | 0.00 | 38 | 816.7 |
| 20260505022730 | 16 | 5 | 1.6 | 24.1 | 0.00 | 0.00 | 0.00 | 36 | 816.7 |
| 20260505022229 | 16 | 309 | 1.6 | 24.1 | 0.00 | 0.00 | 0.00 | 33 | 816.7 |
| 20260505021729 | 17 | 323 | 1.6 | 16.1 | 0.00 | 0.00 | 0.00 | 32 | 816.7 |
| 20260505021229 | 17 | 269 | 0.0 | 11.3 | 0.00 | 0.00 | 0.00 | 30 | 816.6 |
| 20260505020729 | 17 | 234 | 0.0 | 11.3 | 0.00 | 0.00 | 0.00 | 30 | 816.6 |
| 20260505020230 | 17 | 316 | 1.6 | 11.3 | 0.00 | 0.00 | 0.00 | 29 | 816.5 |
| 20260505015733 | 17 | 304 | 1.6 | 19.3 | 0.00 | 0.00 | 0.00 | 29 | 816.4 |
| 20260505015729 | 17 | 284 | 1.6 | 19.3 | 0.00 | 0.00 | 0.00 | 29 | 816.4 |
| 20260505015227 | 17 | 248 | 1.6 | 11.3 | 0.00 | 0.00 | 0.00 | 28 | 816.4 |
| 20260505014228 | 17 | 238 | 1.6 | 22.5 | 0.00 | 0.00 | 0.00 | 28 | 816.2 |
| 20260505013728 | 18 | 276 | 1.6 | 22.5 | 0.00 | 0.00 | 0.00 | 28 | 816.1 |
| 20260505013227 | 18 | 275 | 1.6 | 22.5 | 0.00 | 0.00 | 0.00 | 27 | 816.1 |
| 20260505012727 | 18 | 271 | 3.2 | 22.5 | 0.00 | 0.00 | 0.00 | 27 | 816.0 |
| 20260505012228 | 18 | 288 | 1.6 | 20.9 | 0.00 | 0.00 | 0.00 | 26 | 816.1 |
| 20260505011732 | 19 | 232 | 1.6 | 24.1 | 0.00 | 0.00 | 0.00 | 24 | 815.9 |
| 20260505011727 | 18 | 228 | 1.6 | 17.7 | 0.00 | 0.00 | 0.00 | 26 | 816.1 |
| 20260505011228 | 19 | 297 | 1.6 | 17.7 | 0.00 | 0.00 | 0.00 | 25 | 816.0 |
| 20260505010230 | 19 | 275 | 1.6 | 24.1 | 0.00 | 0.00 | 0.00 | 24 | 815.7 |
| 20260505010225 | 19 | 244 | 1.6 | 22.5 | 0.00 | 0.00 | 0.00 | 23 | 815.7 |
| 20260505005831 | 20 | 314 | 1.6 | 17.7 | 0.00 | 0.00 | 0.00 | 23 | 815.7 |
| 20260505004725 | 20 | 213 | 1.6 | 14.5 | 0.00 | 0.00 | 0.00 | 23 | 815.7 |
| 20260505004224 | 20 | 243 | 1.6 | 14.5 | 0.00 | 0.00 | 0.00 | 22 | 815.6 |
| 20260505003725 | 20 | 266 | 1.6 | 19.3 | 0.00 | 0.00 | 0.00 | 21 | 815.5 |
| 20260505003225 | 20 | 243 | 1.6 | 19.3 | 0.00 | 0.00 | 0.00 | 20 | 815.4 |
| 20260505002723 | 20 | 313 | 1.6 | 19.3 | 0.00 | 0.00 | 0.00 | 19 | 815.4 |
| 20260505002223 | 20 | 223 | 1.6 | 8.0 | 0.00 | 0.00 | 0.00 | 18 | 815.4 |
| 20260505001722 | 21 | 238 | 0.0 | 8.0 | 0.00 | 0.00 | 0.00 | 20 | 815.3 |
| 20260505001224 | 21 | 221 | 1.6 | 12.9 | 0.00 | 0.00 | 0.00 | 20 | 815.3 |
| 20260505000721 | 21 | 242 | 0.0 | 12.9 | 0.00 | 0.00 | 0.00 | 19 | 815.4 |
| 20260505000221 | 21 | 221 | 0.0 | 11.3 | 0.00 | 0.00 | 0.00 | 19 | 815.3 |
| 20260504235721 | 21 | 209 | 1.6 | 11.3 | 0.00 | 0.00 | 0.00 | 19 | 815.5 |
| 20260504235221 | 21 | 218 | 1.6 | 19.3 | 0.00 | 0.00 | 0.00 | 19 | 815.6 |
| 20260504234728 | 21 | 205 | 3.2 | 24.1 | 0.00 | 0.00 | 0.00 | 19 | 815.7 |
| 20260504234720 | 21 | 284 | 1.6 | 19.3 | 0.00 | 0.00 | 0.00 | 19 | 815.7 |
| 20260504234222 | 21 | 269 | 1.6 | 14.5 | 0.00 | 0.00 | 0.00 | 19 | 815.7 |
| 20260504233222 | 21 | 214 | 3.2 | 24.1 | 0.00 | 0.00 | 0.00 | 18 | 815.7 |
| 20260504232724 | 21 | 308 | 1.6 | 24.1 | 0.00 | 0.00 | 0.00 | 19 | 815.7 |
| 20260504232720 | 21 | 306 | 1.6 | 24.1 | 0.00 | 0.00 | 0.00 | 18 | 815.6 |
| 20260504231719 | 21 | 214 | 3.2 | 24.1 | 0.00 | 0.00 | 0.00 | 18 | 815.7 |
| 20260504231219 | 21 | 271 | 1.6 | 25.7 | 0.00 | 0.00 | 0.00 | 18 | 815.7 |
| 20260504230723 | 21 | 311 | 1.6 | 17.7 | 0.00 | 0.00 | 0.00 | 19 | 815.7 |
| 20260504230719 | 21 | 211 | 1.6 | 25.7 | 0.00 | 0.00 | 0.00 | 20 | 815.8 |
| 20260504225716 | 22 | 281 | 1.6 | 14.5 | 0.00 | 0.00 | 0.00 | 19 | 815.7 |
| 20260504225217 | 22 | 221 | 1.6 | 20.9 | 0.00 | 0.00 | 0.00 | 18 | 815.7 |
| 20260504224717 | 22 | 238 | 1.6 | 20.9 | 0.00 | 0.00 | 0.00 | 18 | 815.9 |
| 20260504224214 | 23 | 288 | 1.6 | 17.7 | 0.00 | 0.00 | 0.00 | 19 | 815.9 |
| 20260504223714 | 22 | 250 | 1.6 | 17.7 | 0.00 | 0.00 | 0.00 | 18 | 815.9 |
| 20260504223213 | 22 | 191 | 1.6 | 12.9 | 0.00 | 0.00 | 0.00 | 19 | 815.9 |
| 20260504222713 | 22 | 267 | 1.6 | 29.0 | 0.00 | 0.00 | 0.00 | 19 | 816.1 |
| 20260504222214 | 22 | 212 | 1.6 | 29.0 | 0.00 | 0.00 | 0.00 | 19 | 816.1 |
| 20260504221713 | 22 | 235 | 1.6 | 12.9 | 0.00 | 0.00 | 0.00 | 20 | 815.9 |
| 20260504221212 | 22 | 242 | 3.2 | 20.9 | 0.00 | 0.00 | 0.00 | 19 | 816.0 |
| 20260504220713 | 22 | 267 | 1.6 | 20.9 | 0.00 | 0.00 | 0.00 | 19 | 816.0 |
| 20260504220217 | 22 | 200 | 1.6 | 22.5 | 0.00 | 0.00 | 0.00 | 19 | 816.1 |
| 20260504220213 | 22 | 242 | 1.6 | 22.5 | 0.00 | 0.00 | 0.00 | 19 | 815.9 |
| 20260504215218 | 22 | 342 | 1.6 | 17.7 | 0.00 | 0.00 | 0.00 | 18 | 816.3 |
| 20260504215213 | 22 | 238 | 1.6 | 16.1 | 0.00 | 0.00 | 0.00 | 19 | 816.3 |
| 20260504214213 | 22 | 206 | 3.2 | 17.7 | 0.00 | 0.00 | 0.00 | 19 | 816.4 |
| 20260504213714 | 22 | 255 | 3.2 | 19.3 | 0.00 | 0.00 | 0.00 | 20 | 816.4 |
| 20260504213213 | 22 | 202 | 3.2 | 25.7 | 0.00 | 0.00 | 0.00 | 20 | 816.5 |
| 20260504212712 | 22 | 288 | 1.6 | 25.7 | 0.00 | 0.00 | 0.00 | 21 | 816.4 |
| 20260504212214 | 22 | 273 | 1.6 | 19.3 | 0.00 | 0.00 | 0.00 | 21 | 816.4 |
| 20260504211713 | 22 | 212 | 1.6 | 14.5 | 0.00 | 0.00 | 0.00 | 22 | 816.6 |
| 20260504211213 | 22 | 221 | 1.6 | 14.5 | 0.00 | 0.00 | 0.00 | 21 | 816.5 |
| 20260504210718 | 22 | 277 | 1.6 | 9.7 | 0.00 | 0.00 | 0.00 | 21 | 816.7 |
| 20260504210714 | 22 | 201 | 1.6 | 14.5 | 0.00 | 0.00 | 0.00 | 21 | 816.6 |
| 20260504210318 | 22 | 263 | 1.6 | 14.5 | 0.00 | 0.00 | 0.00 | 21 | 816.9 |
| 20260504205712 | 22 | 263 | 1.6 | 14.5 | 0.00 | 0.00 | 0.00 | 21 | 816.9 |
| 20260504204713 | 22 | 236 | 1.6 | 16.1 | 0.00 | 0.00 | 0.00 | 21 | 817.1 |
| 20260504204214 | 22 | 227 | 1.6 | 17.7 | 0.00 | 0.00 | 0.00 | 21 | 817.2 |
| 20260504203713 | 22 | 213 | 3.2 | 24.1 | 0.00 | 0.00 | 0.00 | 20 | 817.1 |
| 20260504203213 | 21 | 277 | 3.2 | 24.1 | 0.00 | 0.00 | 0.00 | 20 | 817.2 |
| 20260504202712 | 22 | 227 | 1.6 | 22.5 | 0.00 | 0.00 | 0.00 | 19 | 817.2 |
| 20260504202213 | 21 | 326 | 1.6 | 22.5 | 0.00 | 0.00 | 0.00 | 20 | 817.2 |
| 20260504201712 | 21 | 248 | 1.6 | 27.4 | 0.00 | 0.00 | 0.00 | 20 | 817.3 |
| 20260504201211 | 21 | 285 | 3.2 | 27.4 | 0.00 | 0.00 | 0.00 | 20 | 817.2 |
| 20260504200711 | 21 | 261 | 3.2 | 24.1 | 0.00 | 0.00 | 0.00 | 21 | 817.2 |
| 20260504200210 | 21 | 204 | 3.2 | 22.5 | 0.00 | 0.00 | 0.00 | 20 | 817.3 |
| 20260504195711 | 22 | 210 | 1.6 | 22.5 | 0.00 | 0.00 | 0.00 | 20 | 817.3 |
| 20260504195215 | 21 | 226 | 1.6 | 16.1 | 0.00 | 0.00 | 0.00 | 20 | 817.2 |
| 20260504195210 | 22 | 267 | 1.6 | 16.1 | 0.00 | 0.00 | 0.00 | 20 | 817.3 |
| 20260504194209 | 21 | 251 | 1.6 | 16.1 | 0.00 | 0.00 | 0.00 | 20 | 817.3 |
| 20260504193714 | 21 | 213 | 1.6 | 20.9 | 0.00 | 0.00 | 0.00 | 21 | 817.4 |
| 20260504193709 | 21 | 282 | 1.6 | 16.1 | 0.00 | 0.00 | 0.00 | 21 | 817.4 |
| 20260504193209 | 21 | 311 | 1.6 | 20.9 | 0.00 | 0.00 | 0.00 | 21 | 817.3 |
| 20260504192817 | 21 | 165 | 3.2 | 17.7 | 0.00 | 0.00 | 0.00 | 20 | 817.3 |
| 20260504192314 | 21 | 253 | 1.6 | 17.7 | 0.00 | 0.00 | 0.00 | 20 | 817.4 |
| 20260504191208 | 21 | 303 | 1.6 | 16.1 | 0.00 | 0.00 | 0.00 | 20 | 817.6 |
| 20260504190713 | 21 | 242 | 3.2 | 33.8 | 0.00 | 0.00 | 0.00 | 21 | 817.7 |
| 20260504190709 | 21 | 249 | 3.2 | 29.0 | 0.00 | 0.00 | 0.00 | 22 | 817.5 |
| 20260504185708 | 21 | 164 | 3.2 | 33.8 | 0.00 | 0.00 | 0.00 | 20 | 817.8 |
| 20260504185208 | 21 | 307 | 1.6 | 24.1 | 0.00 | 0.00 | 0.00 | 18 | 818.0 |
| 20260504184713 | 21 | 233 | 3.2 | 19.3 | 0.00 | 0.00 | 0.00 | 20 | 817.9 |
| 20260504184707 | 21 | 217 | 3.2 | 19.3 | 0.00 | 0.00 | 0.00 | 20 | 818.0 |
| 20260504183707 | 21 | 273 | 1.6 | 12.9 | 0.00 | 0.00 | 0.00 | 20 | 818.1 |
| 20260504183206 | 21 | 275 | 3.2 | 16.1 | 0.00 | 0.00 | 0.00 | 21 | 818.2 |
| 20260504182712 | 21 | 263 | 1.6 | 12.9 | 0.00 | 0.00 | 0.00 | 23 | 817.9 |
| 20260504182706 | 21 | 219 | 3.2 | 16.1 | 0.00 | 0.00 | 0.00 | 19 | 818.1 |
| 20260504181706 | 21 | 14 | 3.2 | 25.7 | 0.00 | 0.00 | 0.00 | 25 | 817.8 |
| 20260504181204 | 20 | 199 | 3.2 | 25.7 | 0.00 | 0.00 | 0.00 | 23 | 817.8 |
| 20260504180704 | 20 | 273 | 1.6 | 14.5 | 0.00 | 0.00 | 0.00 | 23 | 817.8 |
| 20260504180208 | 20 | 259 | 1.6 | 16.1 | 0.00 | 0.00 | 0.00 | 25 | 818.1 |
| 20260504180204 | 20 | 245 | 1.6 | 16.1 | 0.00 | 0.00 | 0.00 | 26 | 818.0 |
| 20260504175203 | 20 | 264 | 1.6 | 19.3 | 0.00 | 0.00 | 0.00 | 25 | 818.2 |
| 20260504174704 | 20 | 275 | 3.2 | 19.3 | 0.00 | 0.00 | 0.00 | 25 | 818.1 |
| 20260504174206 | 20 | 300 | 3.2 | 16.1 | 0.00 | 0.00 | 0.00 | 27 | 818.1 |
| 20260504173705 | 20 | 271 | 1.6 | 14.5 | 0.00 | 0.00 | 0.00 | 28 | 818.2 |
| 20260504173204 | 20 | 213 | 0.0 | 14.5 | 0.00 | 0.00 | 0.00 | 28 | 818.3 |
| 20260504172704 | 19 | 268 | 0.0 | 8.0 | 0.00 | 0.00 | 0.00 | 29 | 818.4 |
| 20260504172202 | 18 | 256 | 0.0 | 16.1 | 0.00 | 0.00 | 0.00 | 31 | 818.5 |
| 20260504171703 | 18 | 221 | 1.6 | 16.1 | 0.00 | 0.00 | 0.00 | 30 | 818.6 |
| 20260504171202 | 19 | 199 | 1.6 | 14.5 | 0.00 | 0.00 | 0.00 | 30 | 818.6 |
| 20260504170702 | 18 | 249 | 1.6 | 16.1 | 0.00 | 0.00 | 0.00 | 30 | 818.6 |
| 20260504170202 | 18 | 167 | 1.6 | 16.1 | 0.00 | 0.00 | 0.00 | 29 | 818.5 |
| 20260504160200 | 18 | 269 | 1.6 | 16.1 | 0.00 | 0.00 | 0.00 | 34 | 818.6 |
| 20260504150702 | 16 | 241 | 0.0 | 12.9 | 0.00 | 0.00 | 0.00 | 39 | 818.7 |
| 20260504150657 | 16 | 232 | 1.6 | 12.9 | 0.00 | 0.00 | 0.00 | 39 | 818.6 |